This is the latest recevied weather packets stored in our database for station/object KC4GS-13. If no packets are shown the sender has not sent any weather packets the latest 10 day(s).
| Time | Temp. | Humidity | Pressure | Rain* | Wind** | Luminosity | Snow |
|---|---|---|---|---|---|---|---|
| 1777585547 | 27.22° C | 54% | 1009.7 hPa | 0 mm | - | 103 W/m² | - |
| 1777585243 | 27.22° C | 54% | 1009.8 hPa | 0 mm | - | 126 W/m² | - |
| 1777584938 | 27.22° C | 54% | 1009.7 hPa | 0 mm | - | 365 W/m² | - |
| 1777584636 | 27.22° C | 55% | 1009.8 hPa | 0 mm | - | 442 W/m² | - |
| 1777584332 | 27.22° C | 57% | 1009.8 hPa | 0 mm | - | 438 W/m² | - |
| 1777584028 | 27.22° C | 55% | 1010.2 hPa | 0 mm | - | 441 W/m² | - |
| 1777583723 | 26.67° C | 57% | 1010.1 hPa | 0 mm | - | 350 W/m² | - |
| 1777583422 | 26.67° C | 59% | 1009.9 hPa | 0 mm | - | 441 W/m² | - |
| 1777583121 | 26.67° C | 60% | 1009.7 hPa | 0 mm | - | 243 W/m² | - |
| 1777582818 | 26.11° C | 60% | 1009.9 hPa | 0 mm | - | 218 W/m² | - |
| 1777582515 | 26.11° C | 59% | 1009.8 hPa | 0 mm | - | 258 W/m² | - |
| 1777582210 | 26.11° C | 60% | 1009.8 hPa | 0 mm | - | 286 W/m² | - |
| 1777581908 | 26.11° C | 59% | 1010 hPa | 0 mm | - | 335 W/m² | - |
| 1777581603 | 26.11° C | 59% | 1009.8 hPa | 0 mm | - | 245 W/m² | - |
| 1777581297 | 26.67° C | 59% | 1010 hPa | 0 mm | - | 197 W/m² | - |
| 1777580992 | 26.67° C | 58% | 1010 hPa | 0 mm | - | 178 W/m² | - |
| 1777580691 | 26.67° C | 57% | 1009.9 hPa | 0 mm | - | 226 W/m² | - |
| 1777580382 | 27.22° C | 58% | 1010.1 hPa | 0 mm | - | 260 W/m² | - |
| 1777580079 | 27.78° C | 56% | 1010.2 hPa | 0 mm | - | 372 W/m² | - |
| 1777579775 | 27.22° C | 60% | 1010.2 hPa | 0 mm | - | 235 W/m² | - |
| 1777579472 | 26.67° C | 60% | 1010.1 hPa | 0 mm | - | 635 W/m² | - |
| 1777579168 | 26.67° C | 59% | 1010.3 hPa | 0 mm | - | 497 W/m² | - |
| 1777578863 | 26.11° C | 61% | 1010.1 hPa | 0 mm | - | 577 W/m² | - |
| 1777578560 | 26.67° C | 60% | 1010.1 hPa | 0 mm | - | 190 W/m² | - |
| 1777578254 | 27.22° C | 59% | 1010.2 hPa | 0 mm | - | 105 W/m² | - |
* Rain latest hour (hover to see other rain measurements)
** Current wind speed in m/s (hover to see current wind gust speed)